When you browse on this site, cookies collect data to enhance your experience and personalize the content and advertising you see.
Visit our Privacy Policy to learn more. By continuing to use the site, you agree to this use of cookies and data.

Hourly Weather Tskhinvali

Today, 12 July, Sunday

Time Temperature Precipitation Wind Pressure Humidity
00:00 +18°C° 0.1 mm 2 mps 682 mmHg 83%
01:00 +18°C° 0 mm 2 mps 682 mmHg 83%
02:00 +18°C° 0 mm 2 mps 681 mmHg 83%
03:00 +18°C° 0 mm 2 mps 681 mmHg 84%
04:00 +18°C° 0.2 mm 2 mps 681 mmHg 83%
05:00 +18°C° 0.2 mm 2 mps 681 mmHg 83%
06:00 +19°C° 0.2 mm 2 mps 681 mmHg 83%
07:00 +20°C° 0.2 mm 2 mps 681 mmHg 77%
08:00 +21°C° 0.2 mm 3 mps 681 mmHg 72%
09:00 +24°C° 0.2 mm 3 mps 681 mmHg 67%
10:00 +25°C° 0.1 mm 4 mps 681 mmHg 61%
11:00 +26°C° 0.1 mm 5 mps 681 mmHg 56%
12:00 +28°C° 0.1 mm 5 mps 681 mmHg 50%
13:00 +28°C° 0.1 mm 6 mps 681 mmHg 49%
14:00 +28°C° 0.1 mm 6 mps 681 mmHg 47%
15:00 +29°C° 0.1 mm 6 mps 681 mmHg 46%
16:00 +28°C° 0.2 mm 5 mps 680 mmHg 50%
17:00 +27°C° 0.2 mm 4 mps 680 mmHg 55%
18:00 +26°C° 0.2 mm 3 mps 680 mmHg 60%
19:00 +24°C° 0.2 mm 2 mps 679 mmHg 65%
20:00 +23°C° 0.2 mm 2 mps 679 mmHg 71%
21:00 +21°C° 0.2 mm 1 mps 679 mmHg 76%
22:00 +21°C° 0.2 mm 1 mps 679 mmHg 79%
23:00 +20°C° 0.2 mm 1 mps 679 mmHg 83%

Tomorrow, 13 July, Monday

Time Temperature Precipitation Wind Pressure Humidity
00:00 +20°C° 0.2 mm 1 mps 678 mmHg 87%
01:00 +20°C° 0.3 mm 1 mps 678 mmHg 87%
02:00 +20°C° 0.3 mm 1 mps 678 mmHg 87%
03:00 +20°C° 0.3 mm 1 mps 678 mmHg 87%
04:00 +19°C° 0.3 mm 1 mps 678 mmHg 88%
05:00 +19°C° 0.3 mm 1 mps 677 mmHg 89%
06:00 +19°C° 0.3 mm 1 mps 677 mmHg 90%
07:00 +20°C° 0.3 mm 1 mps 677 mmHg 87%
08:00 +21°C° 0.3 mm 1 mps 677 mmHg 84%
09:00 +22°C° 0.3 mm 1 mps 678 mmHg 82%
10:00 +23°C° 0.4 mm 2 mps 678 mmHg 74%
11:00 +25°C° 0.4 mm 2 mps 678 mmHg 67%
12:00 +26°C° 0.4 mm 3 mps 678 mmHg 60%
13:00 +26°C° 1 mm 2 mps 678 mmHg 63%
14:00 +25°C° 1 mm 2 mps 677 mmHg 66%
15:00 +25°C° 1 mm 2 mps 677 mmHg 70%
16:00 +24°C° 1.3 mm 2 mps 677 mmHg 77%
17:00 +23°C° 1.3 mm 2 mps 677 mmHg 84%
18:00 +20°C° 1.3 mm 2 mps 677 mmHg 91%
19:00 +20°C° 0.5 mm 2 mps 677 mmHg 93%
20:00 +19°C° 0.5 mm 2 mps 677 mmHg 94%
21:00 +18°C° 0.5 mm 2 mps 677 mmHg 96%
22:00 +19°C° 0.1 mm 1 mps 677 mmHg 96%
23:00 +19°C° 0.1 mm 1 mps 678 mmHg 96%

Day after tomorrow, 14 July, Tuesday

Time Temperature Precipitation Wind Pressure Humidity
00:00 +18°C° 0.1 mm 1 mps 678 mmHg 96%
01:00 +18°C° 0 mm 1 mps 678 mmHg 96%
02:00 +18°C° 0 mm 1 mps 678 mmHg 96%
03:00 +17°C° 0 mm 2 mps 678 mmHg 96%
04:00 +17°C° 0 mm 2 mps 678 mmHg 95%
05:00 +18°C° 0 mm 2 mps 678 mmHg 94%
06:00 +18°C° 0 mm 2 mps 679 mmHg 94%
07:00 +19°C° 0.1 mm 2 mps 679 mmHg 89%
08:00 +20°C° 0.1 mm 3 mps 679 mmHg 85%
09:00 +21°C° 0.1 mm 3 mps 680 mmHg 80%
10:00 +22°C° 0.2 mm 4 mps 680 mmHg 76%
11:00 +23°C° 0.2 mm 5 mps 680 mmHg 71%
12:00 +24°C° 0.2 mm 6 mps 681 mmHg 67%
13:00 +24°C° 0.4 mm 6 mps 681 mmHg 68%
14:00 +24°C° 0.4 mm 7 mps 681 mmHg 70%
15:00 +23°C° 0.4 mm 7 mps 681 mmHg 71%
16:00 +22°C° 0.1 mm 6 mps 681 mmHg 76%
17:00 +21°C° 0.1 mm 6 mps 681 mmHg 80%
18:00 +20°C° 0.1 mm 5 mps 680 mmHg 85%
19:00 +19°C° 0 mm 4 mps 681 mmHg 88%
20:00 +18°C° 0 mm 4 mps 681 mmHg 91%
21:00 +18°C° 0 mm 3 mps 682 mmHg 93%
22:00 +17°C° 0 mm 3 mps 682 mmHg 94%
23:00 +17°C° 0 mm 3 mps 682 mmHg 95%

15 July, Wednesday

Time Temperature Precipitation Wind Pressure Humidity
00:00 +17°C° 0 mm 2 mps 681 mmHg 95%
01:00 +17°C° 0 mm 2 mps 682 mmHg 95%
02:00 +16°C° 0 mm 2 mps 682 mmHg 94%
03:00 +16°C° 0 mm 2 mps 682 mmHg 94%
04:00 +17°C° 0 mm 2 mps 682 mmHg 92%
05:00 +17°C° 0 mm 2 mps 682 mmHg 91%
06:00 +17°C° 0 mm 2 mps 682 mmHg 89%
07:00 +19°C° 0 mm 2 mps 683 mmHg 81%
08:00 +21°C° 0 mm 2 mps 683 mmHg 73%
09:00 +22°C° 0 mm 3 mps 683 mmHg 64%
10:00 +25°C° 0 mm 3 mps 683 mmHg 58%
11:00 +27°C° 0 mm 3 mps 683 mmHg 52%
12:00 +28°C° 0 mm 3 mps 683 mmHg 45%
13:00 +28°C° 0 mm 4 mps 683 mmHg 45%
14:00 +29°C° 0 mm 4 mps 683 mmHg 45%
15:00 +29°C° 0 mm 5 mps 683 mmHg 44%
16:00 +28°C° 0.1 mm 5 mps 683 mmHg 53%
17:00 +26°C° 0.1 mm 4 mps 683 mmHg 62%
18:00 +25°C° 0.1 mm 4 mps 682 mmHg 71%
19:00 +21°C° 0.4 mm 3 mps 682 mmHg 79%
20:00 +19°C° 0.4 mm 2 mps 682 mmHg 86%
21:00 +17°C° 0.4 mm 2 mps 682 mmHg 94%
22:00 +17°C° 0.2 mm 2 mps 682 mmHg 94%
23:00 +18°C° 0.2 mm 1 mps 682 mmHg 94%

16 July, Thursday

Time Temperature Precipitation Wind Pressure Humidity
00:00 +18°C° 0.2 mm 1 mps 682 mmHg 94%
01:00 +18°C° 0.2 mm 1 mps 682 mmHg 93%
02:00 +16°C° 0.2 mm 1 mps 681 mmHg 93%
03:00 +16°C° 0.2 mm 1 mps 681 mmHg 93%
04:00 +16°C° 0.2 mm 0 mps 681 mmHg 92%
05:00 +16°C° 0.2 mm 0 mps 681 mmHg 90%
06:00 +17°C° 0.2 mm 0 mps 681 mmHg 89%
07:00 +20°C° 0.3 mm 1 mps 681 mmHg 86%
08:00 +21°C° 0.3 mm 1 mps 681 mmHg 82%
09:00 +22°C° 0.3 mm 1 mps 682 mmHg 79%
10:00 +23°C° 0.5 mm 2 mps 682 mmHg 75%
11:00 +24°C° 0.5 mm 2 mps 681 mmHg 70%
12:00 +26°C° 0.5 mm 2 mps 681 mmHg 65%
13:00 +26°C° 1 mm 2 mps 681 mmHg 66%
14:00 +26°C° 1 mm 2 mps 681 mmHg 68%
15:00 +26°C° 1 mm 2 mps 681 mmHg 69%
16:00 +25°C° 1.3 mm 2 mps 681 mmHg 74%
17:00 +24°C° 1.3 mm 2 mps 681 mmHg 79%
18:00 +23°C° 1.3 mm 2 mps 680 mmHg 84%
19:00 +21°C° 0.6 mm 2 mps 680 mmHg 87%
20:00 +20°C° 0.6 mm 1 mps 680 mmHg 91%
21:00 +19°C° 0.6 mm 1 mps 680 mmHg 94%
22:00 +19°C° 0.4 mm 1 mps 680 mmHg 94%
23:00 +18°C° 0.4 mm 1 mps 680 mmHg 93%

17 July, Friday

Time Temperature Precipitation Wind Pressure Humidity
00:00 +18°C° 0.4 mm 1 mps 679 mmHg 93%
01:00 +18°C° 0.5 mm 1 mps 679 mmHg 93%
02:00 +18°C° 0.5 mm 1 mps 679 mmHg 92%
03:00 +16°C° 0.5 mm 1 mps 679 mmHg 92%
04:00 +18°C° 0.1 mm 1 mps 679 mmHg 91%
05:00 +17°C° 0.1 mm 0 mps 679 mmHg 90%
06:00 +17°C° 0.1 mm 0 mps 680 mmHg 89%
07:00 +21°C° 0.4 mm 1 mps 680 mmHg 85%
08:00 +21°C° 0.4 mm 2 mps 680 mmHg 81%
09:00 +23°C° 0.4 mm 2 mps 680 mmHg 77%
10:00 +24°C° 0.6 mm 3 mps 680 mmHg 73%
11:00 +25°C° 0.6 mm 3 mps 680 mmHg 69%
12:00 +27°C° 0.6 mm 4 mps 680 mmHg 65%
13:00 +27°C° 0.3 mm 4 mps 680 mmHg 63%
14:00 +28°C° 0.3 mm 4 mps 680 mmHg 61%
15:00 +28°C° 0.3 mm 4 mps 680 mmHg 59%
16:00 +27°C° 0.4 mm 4 mps 680 mmHg 63%
17:00 +26°C° 0.4 mm 3 mps 680 mmHg 68%
18:00 +26°C° 0.4 mm 3 mps 680 mmHg 72%
19:00 +24°C° 0.2 mm 2 mps 680 mmHg 77%
20:00 +21°C° 0.2 mm 2 mps 680 mmHg 81%
21:00 +19°C° 0.2 mm 2 mps 680 mmHg 86%
22:00 +19°C° 0 mm 2 mps 680 mmHg 86%
23:00 +19°C° 0 mm 2 mps 680 mmHg 85%
Show more